Вернуться в каталог

FENGYUN 1C DEB

АктивенSSO
NORAD 38797·DEBRIS·🇨🇳 China

Запущен May 10, 1999 с Taiyuan Satellite Launch Center

Loading…

Ближайшие Пролёты (ближайшие 24 часа)

TLE

СвежийSource: Space-Track

Эпоха: Sep 14, 2026, 22:53 UTC

1 38797U 99025EUM 26257.95386208  .00000018  00000-0  66313-4 0  9994
2 38797  99.4544 147.9151 0244232 235.6165 122.1663 13.61865168630425

Отслеживайте FENGYUN 1C DEB в реальном времени с AllMySat

Download on the App Store